When you browse on this site, cookies collect data to enhance your experience and personalize the content and advertising you see.
Visit our Privacy Policy to learn more. By continuing to use the site, you agree to this use of cookies and data.
  • In Netherlands
  • List of Countries
  • For 7 days
  • Water Temperature
  • Satellite Maps
  • Weather Map
  • Weather Widgets
  • user-avatar
    Login

    Hourly Weather Chetyrehyarskiy

    Today, 23 February, Saturday

    Time Temperature Precipitation Wind Pressure Humidity
    00:00 -5°C° 0.2 mm 4 mps 764 mmHg 75%
    01:00 -5°C° 0.3 mm 4 mps 764 mmHg 77%
    02:00 -7°C° 0.3 mm 5 mps 764 mmHg 79%
    03:00 -7°C° 0 mm 4 mps 765 mmHg 82%
    04:00 -7°C° 0.4 mm 4 mps 765 mmHg 84%
    05:00 -7°C° 0.4 mm 4 mps 765 mmHg 86%
    06:00 -7°C° 0.4 mm 5 mps 765 mmHg 88%
    07:00 -7°C° 0.3 mm 5 mps 766 mmHg 87%
    08:00 -7°C° 0.3 mm 5 mps 766 mmHg 87%
    09:00 -7°C° 0 mm 5 mps 767 mmHg 86%
    10:00 -7°C° 0.3 mm 5 mps 767 mmHg 86%
    11:00 -6°C° 0.3 mm 5 mps 768 mmHg 86%
    12:00 -6°C° 0.3 mm 5 mps 768 mmHg 86%
    13:00 -6°C° 0.7 mm 5 mps 768 mmHg 88%
    14:00 -6°C° 0.7 mm 5 mps 768 mmHg 90%
    15:00 -6°C° 0.7 mm 5 mps 768 mmHg 91%
    16:00 -6°C° 0.4 mm 5 mps 769 mmHg 91%
    17:00 -6°C° 0.4 mm 5 mps 769 mmHg 91%
    18:00 -6°C° 0.4 mm 5 mps 769 mmHg 91%
    19:00 -7°C° 0.1 mm 5 mps 769 mmHg 91%
    20:00 -7°C° 0.1 mm 5 mps 769 mmHg 91%
    21:00 -7°C° 0.1 mm 5 mps 770 mmHg 90%
    22:00 -7°C° 0 mm 5 mps 770 mmHg 90%
    23:00 -7°C° 0 mm 4 mps 770 mmHg 90%

    Tomorrow, 24 February, Sunday

    Time Temperature Precipitation Wind Pressure Humidity
    00:00 -7°C° 0 mm 4 mps 770 mmHg 90%
    01:00 -8°C° 0 mm 4 mps 770 mmHg 90%
    02:00 -8°C° 0 mm 4 mps 770 mmHg 89%
    03:00 -8°C° 0 mm 4 mps 771 mmHg 89%
    04:00 -8°C° 0 mm 4 mps 771 mmHg 89%
    05:00 -9°C° 0 mm 4 mps 771 mmHg 89%
    06:00 -9°C° 0 mm 4 mps 771 mmHg 89%
    07:00 -9°C° 0 mm 4 mps 771 mmHg 88%
    08:00 -8°C° 0 mm 3 mps 771 mmHg 88%
    09:00 -8°C° 0 mm 3 mps 771 mmHg 87%
    10:00 -7°C° 0 mm 3 mps 772 mmHg 85%
    11:00 -7°C° 0 mm 3 mps 772 mmHg 82%
    12:00 -6°C° 0 mm 3 mps 772 mmHg 79%
    13:00 -5°C° 0 mm 3 mps 772 mmHg 78%
    14:00 -5°C° 0 mm 3 mps 771 mmHg 76%
    15:00 -5°C° 0 mm 3 mps 771 mmHg 75%
    16:00 -5°C° 0 mm 2 mps 771 mmHg 78%
    17:00 -6°C° 0 mm 2 mps 771 mmHg 81%
    18:00 -7°C° 0 mm 2 mps 771 mmHg 84%
    19:00 -7°C° 0 mm 2 mps 771 mmHg 86%
    20:00 -7°C° 0 mm 1 mps 772 mmHg 87%
    21:00 -8°C° 0 mm 1 mps 772 mmHg 89%
    22:00 -8°C° 0 mm 1 mps 772 mmHg 89%
    23:00 -8°C° 0 mm 1 mps 771 mmHg 89%

    Day after tomorrow, 25 February, Monday

    Time Temperature Precipitation Wind Pressure Humidity
    00:00 -9°C° 0 mm 2 mps 771 mmHg 89%
    01:00 -9°C° 0 mm 2 mps 771 mmHg 88%
    02:00 -9°C° 0 mm 2 mps 771 mmHg 87%
    03:00 -9°C° 0 mm 2 mps 771 mmHg 86%
    04:00 -9°C° 0 mm 2 mps 770 mmHg 85%
    05:00 -10°C° 0 mm 3 mps 770 mmHg 85%
    06:00 -10°C° 0 mm 3 mps 769 mmHg 84%
    07:00 -9°C° 0 mm 3 mps 769 mmHg 82%
    08:00 -9°C° 0 mm 4 mps 769 mmHg 81%
    09:00 -8°C° 0 mm 5 mps 769 mmHg 80%
    10:00 -7°C° 0 mm 5 mps 768 mmHg 79%
    11:00 -5°C° 0 mm 5 mps 768 mmHg 78%
    12:00 -4°C° 0 mm 6 mps 767 mmHg 78%
    13:00 -4°C° 0 mm 6 mps 766 mmHg 79%
    14:00 -3°C° 0 mm 6 mps 766 mmHg 80%
    15:00 -3°C° 0 mm 7 mps 765 mmHg 81%
    16:00 -3°C° 0 mm 6 mps 764 mmHg 82%
    17:00 -3°C° 0 mm 6 mps 763 mmHg 83%
    18:00 -4°C° 0 mm 6 mps 763 mmHg 84%
    19:00 -4°C° 0.2 mm 7 mps 762 mmHg 85%
    20:00 -4°C° 0.2 mm 7 mps 762 mmHg 87%
    21:00 -4°C° 0.2 mm 7 mps 761 mmHg 88%
    22:00 -4°C° 0.5 mm 7 mps 760 mmHg 89%
    23:00 -3°C° 0.5 mm 7 mps 760 mmHg 90%

    26 February, Tuesday

    Time Temperature Precipitation Wind Pressure Humidity
    00:00 -3°C° 0.5 mm 7 mps 759 mmHg 91%
    01:00 -3°C° 0.2 mm 7 mps 758 mmHg 90%
    02:00 -3°C° 0.2 mm 7 mps 758 mmHg 90%
    03:00 -3°C° 0.2 mm 7 mps 757 mmHg 90%
    04:00 -3°C° 0.1 mm 6 mps 756 mmHg 90%
    05:00 -3°C° 0.1 mm 6 mps 756 mmHg 89%
    06:00 -3°C° 0.1 mm 6 mps 755 mmHg 89%
    07:00 -3°C° 0.1 mm 6 mps 755 mmHg 89%
    08:00 -3°C° 0.1 mm 6 mps 755 mmHg 88%
    09:00 -3°C° 0.1 mm 6 mps 755 mmHg 88%
    10:00 -2°C° 0.1 mm 6 mps 754 mmHg 88%
    11:00 -2°C° 0.1 mm 6 mps 754 mmHg 89%
    12:00 -2°C° 0.1 mm 7 mps 754 mmHg 89%
    13:00 -1°C° 0.1 mm 6 mps 753 mmHg 88%
    14:00 -1°C° 0.1 mm 6 mps 753 mmHg 86%
    15:00 -1°C° 0.1 mm 6 mps 752 mmHg 85%
    16:00 -1°C° 0 mm 6 mps 752 mmHg 86%
    17:00 -1°C° 0 mm 5 mps 752 mmHg 87%
    18:00 -1°C° 0 mm 5 mps 752 mmHg 88%
    19:00 -2°C° 0 mm 4 mps 752 mmHg 89%
    20:00 -2°C° 0 mm 4 mps 752 mmHg 91%
    21:00 -2°C° 0 mm 4 mps 752 mmHg 92%
    22:00 -2°C° 0 mm 4 mps 751 mmHg 93%
    23:00 -2°C° 0 mm 4 mps 751 mmHg 94%

    27 February, Wednesday

    Time Temperature Precipitation Wind Pressure Humidity
    00:00 -2°C° 0 mm 3 mps 751 mmHg 94%
    01:00 -2°C° 0 mm 3 mps 751 mmHg 95%
    02:00 -2°C° 0 mm 3 mps 751 mmHg 95%
    03:00 -4°C° 0 mm 3 mps 751 mmHg 95%
    04:00 -3°C° 0 mm 2 mps 752 mmHg 95%
    05:00 -3°C° 0 mm 2 mps 752 mmHg 95%
    06:00 -3°C° 0 mm 2 mps 752 mmHg 95%
    07:00 -3°C° 0 mm 2 mps 752 mmHg 92%
    08:00 -2°C° 0 mm 2 mps 753 mmHg 90%
    09:00 -2°C° 0 mm 2 mps 753 mmHg 88%
    10:00 -1°C° 0 mm 3 mps 753 mmHg 86%
    11:00 0°C° 0 mm 3 mps 753 mmHg 84%
    12:00 0°C° 0 mm 3 mps 753 mmHg 81%
    13:00 0°C° 0.1 mm 3 mps 753 mmHg 81%
    14:00 -1°C° 0.1 mm 4 mps 753 mmHg 81%
    15:00 0°C° 0.1 mm 4 mps 753 mmHg 81%
    16:00 0°C° 0 mm 3 mps 753 mmHg 83%
    17:00 0°C° 0 mm 3 mps 754 mmHg 85%
    18:00 -1°C° 0 mm 2 mps 754 mmHg 87%
    19:00 -1°C° 0 mm 3 mps 754 mmHg 88%
    20:00 -1°C° 0 mm 3 mps 754 mmHg 89%
    21:00 -2°C° 0 mm 4 mps 754 mmHg 90%
    22:00 -2°C° 0 mm 4 mps 754 mmHg 89%
    23:00 -3°C° 0 mm 4 mps 754 mmHg 89%

    28 February, Thursday

    Time Temperature Precipitation Wind Pressure Humidity
    00:00 -3°C° 0 mm 4 mps 754 mmHg 88%
    01:00 -3°C° 0 mm 4 mps 754 mmHg 88%
    02:00 -3°C° 0 mm 4 mps 753 mmHg 87%
    03:00 -3°C° 0 mm 4 mps 753 mmHg 86%
    04:00 -3°C° 0 mm 4 mps 753 mmHg 84%
    05:00 -3°C° 0 mm 4 mps 753 mmHg 83%
    06:00 -3°C° 0 mm 4 mps 752 mmHg 81%
    07:00 -4°C° 0 mm 5 mps 752 mmHg 78%
    08:00 -4°C° 0 mm 6 mps 752 mmHg 75%
    09:00 -4°C° 0 mm 6 mps 752 mmHg 71%
    10:00 -3°C° 0 mm 6 mps 752 mmHg 72%
    11:00 -3°C° 0 mm 6 mps 752 mmHg 73%
    12:00 -2°C° 0 mm 6 mps 752 mmHg 73%
    13:00 -2°C° 0.1 mm 6 mps 752 mmHg 75%
    14:00 -1°C° 0.1 mm 6 mps 751 mmHg 76%
    15:00 -1°C° 0.1 mm 7 mps 751 mmHg 78%
    16:00 -1°C° 0 mm 6 mps 751 mmHg 81%
    17:00 -1°C° 0 mm 5 mps 751 mmHg 83%
    18:00 -1°C° 0 mm 4 mps 751 mmHg 85%
    19:00 -1°C° 0 mm 4 mps 751 mmHg 87%
    20:00 -2°C° 0 mm 4 mps 751 mmHg 89%
    21:00 -2°C° 0 mm 4 mps 751 mmHg 91%
    22:00 -2°C° 0 mm 4 mps 750 mmHg 92%
    23:00 -2°C° 0 mm 4 mps 750 mmHg 93%
    Show more